This demonstration page uses our WeatherBlox Daily Observations layout. Learn more.

Left ArrowRight Arrow

39.92423, -83.80882

Hourly Observations for January 26, 2021

Temp ( °F °C ) Dew Point ( °F °C ) Humidity (%) Winds ( mph kmh ) Pressure ( in mb ) Visibility ( mi km ) Precip ( " mm )
12:09 am 00:09 Cloudy with Light Snow 32 0 32 0 100 100 E 16 26 29.75 1008 3 4.82802 0.001 0.001
12:16 am 00:16 Cloudy with Light Snow 32 0 32 0 100 100 ENE 14 22 29.75 1008 2 3.21868 0.001 0.001
12:43 am 00:43 Cloudy with Light Snow 32 0 32 0 100 100 E 15 24 29.74 1007 4 6.43736 0.001 0.001
12:56 am 00:56 Cloudy with Light Snow 32 0 32 0 100 100 E 18 30 29.71 1006 4 6.43736 0.001 0.001
1:56 am 01:56 Cloudy with Light Rain 32 0 32 0 100 100 E 15 24 29.68 1005 4 6.43736 0.001 0.001
2:56 am 02:56 Cloudy N/A N/A N/A E 10 17 N/A 4 6.43736 0.001 0.001
3:27 am 03:27 Cloudy with Mist and Fog N/A N/A N/A E 12 19 N/A 2.5 4.02335 0.001 0.001
3:56 am 03:56 Cloudy with Mist and Fog N/A N/A N/A ESE 12 19 N/A 2.5 4.02335 0.001 0.001
4:47 am 04:47 Cloudy N/A N/A N/A ESE 12 19 N/A 1.5 2.41401 0.001 0.001
4:56 am 04:56 Cloudy N/A N/A N/A SE 13 20 N/A 1.75 2.816345 0.001 0.001
5:43 am 05:43 Cloudy with Light Wintry Mix 34 1 34 1 100 100 SE 8 13 29.65 1004 1 1.60934 0.001 0.001
5:56 am 05:56 Cloudy with Light Rain 33 0.6 33 0.6 100 100 SSE 7 11 29.63 1003 1.25 2.011675 0.001 0.001
6:07 am 06:07 Cloudy with Light Wintry Mix 34 1 34 1 100 100 SSE 8 13 29.65 1004 1 1.60934 0.001 0.001
6:20 am 06:20 Cloudy with Mist and Fog 34 1 34 1 100 100 S 6 9 29.66 1004 1.25 2.011675 0.001 0.001
6:38 am 06:38 Cloudy with Light Wintry Mix 34 1 34 1 100 100 SW 3 6 29.67 1005 1 1.60934 0.001 0.001
6:52 am 06:52 Cloudy with Light Rain 34 1 34 1 100 100 WSW 3 6 29.68 1005 0.75 1.207005 0.001 0.001
6:56 am 06:56 Cloudy with Light Rain 33 0.6 33 0.6 100 100 WSW 6 9 29.66 1005 0.75 1.207005 0.001 0.001
7:26 am 07:26 Cloudy with Light Rain 34 1 34 1 100 100 SW 9 15 29.68 1005 1 1.60934 0.001 0.001
7:53 am 07:53 Cloudy with Mist and Fog 34 1 34 1 100 100 SW 9 15 29.68 1005 0.75 1.207005 0.001 0.001
7:56 am 07:56 Cloudy with Fog 33 0.6 33 0.6 100 100 SW 8 13 29.66 1005 0.5 0.80467 0.001 0.001
8:05 am 08:05 Cloudy with Mist and Fog 34 1 34 1 100 100 SW 9 15 29.69 1005 0.75 1.207005 0 0
8:27 am 08:27 Cloudy with Fog 34 1 34 1 100 100 WSW 9 15 29.7 1006 0.5 0.80467 0 0
8:56 am 08:56 Cloudy with Fog 35 1.7 35 1.7 100 100 WSW 9 15 29.69 1005 0.5 0.80467 0 0
9:04 am 09:04 Cloudy with Mist and Fog 36 2 36 2 100 100 WSW 14 22 29.7 1006 1 1.60934 0 0
9:08 am 09:08 Cloudy with Mist and Fog 36 2 36 2 100 100 WSW 14 22 29.7 1006 2.5 4.02335 0 0
9:15 am 09:15 Cloudy with Mist and Fog 36 2 36 2 100 100 WSW 15 24 29.71 1006 6 9.65604 0 0
9:56 am 09:56 Cloudy with Mist and Fog 36 2.2 36 2.2 100 100 WSW 15 24 29.72 1007 3 4.82802 0 0
10:04 am 10:04 Cloudy with Mist and Fog 37 3 37 3 100 100 SW 15 24 29.74 1007 2.5 4.02335 0 0
10:13 am 10:13 Cloudy with Mist and Fog 37 3 37 3 100 100 WSW 14 22 29.74 1007 4 6.43736 0 0
10:41 am 10:41 Cloudy with Light Rain 37 3 37 3 100 100 SW 15 24 29.76 1008 2 3.21868 0.001 0.001
10:51 am 10:51 Cloudy with Light Rain 37 3 37 3 100 100 WSW 15 24 29.77 1008 3 4.82802 0.001 0.001
10:52 am 10:52 Cloudy with Light Rain 37 2.8 37 2.8 100 100 WSW 15 24 29.77 1008 3 4.82802 0.001 0.001
11:09 am 11:09 Cloudy 37 3 37 3 100 100 WSW 16 26 29.78 1008 7 11.26538 0.001 0.001
11:19 am 11:19 Cloudy 39 4 39 4 100 100 WSW 15 24 29.79 1009 9 14.48406 0.001 0.001
11:56 am 11:56 Cloudy 39 3.9 39 3.9 100 100 WSW 10 17 29.77 1008 10 16.0934 0.001 0.001
12:56 pm 12:56 Cloudy 40 4.4 39 3.9 97 97 WSW 12 19 29.78 1008 10 16.0934 0 0
1:56 pm 13:56 Cloudy 42 5.6 39 3.9 89 89 W 20 31 29.78 1008 10 16.0934 0 0
2:56 pm 14:56 Cloudy with Light Rain 40 4.4 40 4.4 100 100 W 18 30 29.81 1010 5 8.0467 0.001 0.001
3:07 pm 15:07 Cloudy with Light Rain 39 4 39 4 100 100 W 17 28 29.82 1010 8 12.87472 0.001 0.001
3:56 pm 15:56 Cloudy 39 3.9 38 3.3 96 96 W 17 28 29.85 1011 10 16.0934 0.001 0.001
4:56 pm 16:56 Cloudy with Light Rain 38 3.3 37 2.8 97 97 W 18 30 29.89 1012 10 16.0934 0.001 0.001
5:56 pm 17:56 Cloudy 37 2.8 34 1.1 89 89 W 14 22 29.91 1013 10 16.0934 0.001 0.001
6:56 pm 18:56 Cloudy 35 1.7 33 0.6 93 93 WNW 16 26 29.96 1014 10 16.0934 0 0
7:40 pm 19:40 Cloudy with Light Wintry Mix 34 1 34 1 100 100 W 12 19 29.99 1016 9 14.48406 0.001 0.001
7:56 pm 19:56 Cloudy with Light Snow 34 1.1 33 0.6 97 97 WNW 13 20 29.98 1015 4 6.43736 0.001 0.001
8:18 pm 20:18 Cloudy with Light Snow 34 1 34 1 100 100 W 15 24 30.01 1016 1.75 2.816345 0.001 0.001
8:26 pm 20:26 Cloudy with Light Snow 34 1 34 1 100 100 W 13 20 30.01 1016 2 3.21868 0.001 0.001
8:37 pm 20:37 Cloudy with Light Snow 34 1 34 1 100 100 W 10 17 30.02 1017 6 9.65604 0.001 0.001
8:56 pm 20:56 Cloudy with Light Wintry Mix 33 0.6 33 0.6 100 100 WNW 13 20 30.01 1016 7 11.26538 0.001 0.001
9:56 pm 21:56 Cloudy with Mist and Fog 32 0 32 0 100 100 NW 13 20 30.03 1017 6 9.65604 0.001 0.001
10:03 pm 22:03 Cloudy 32 0 30 -1 93 93 NW 10 17 30.05 1018 7 11.26538 0 0
10:56 pm 22:56 Cloudy 32 0 31 -0.6 96 96 WNW 12 19 30.05 1018 8 12.87472 0 0
11:56 pm 23:56 Cloudy 32 0 31 -0.6 96 96 WNW 8 13 30.09 1019 8 12.87472 0 0

Powered by AerisWeather